When you browse on this site, cookies collect data to enhance your experience and personalize the content and advertising you see.
Visit our Privacy Policy to learn more. By continuing to use the site, you agree to this use of cookies and data.
  • In Hungary
  • List of Countries
  • For 7 days
  • Water Temperature
  • Weather Map
  • News
  • Weather Widgets
  • user-avatar
    Login

    Hourly Weather Vegachi

    Today, 7 December, Saturday

    Time Temperature Precipitation Wind Pressure Humidity
    00:00 +20°C° 0.3 mm 1 mps 675 mmHg 98%
    01:00 +20°C° 0 mm 1 mps 674 mmHg 98%
    02:00 +19°C° 0.6 mm 1 mps 674 mmHg 98%
    03:00 +19°C° 0.6 mm 1 mps 674 mmHg 98%
    04:00 +19°C° 0.6 mm 1 mps 674 mmHg 98%
    05:00 +19°C° 0.2 mm 1 mps 674 mmHg 98%
    06:00 +20°C° 0.2 mm 1 mps 675 mmHg 98%
    07:00 +20°C° 0.2 mm 1 mps 675 mmHg 97%
    08:00 +22°C° 0.1 mm 1 mps 676 mmHg 88%
    09:00 +24°C° 0.1 mm 1 mps 676 mmHg 79%
    10:00 +26°C° 0.1 mm 1 mps 677 mmHg 70%
    11:00 +26°C° 0.7 mm 1 mps 676 mmHg 74%
    12:00 +26°C° 0.7 mm 1 mps 675 mmHg 78%
    13:00 +26°C° 0.7 mm 1 mps 674 mmHg 82%
    14:00 +26°C° 0.6 mm 1 mps 674 mmHg 83%
    15:00 +25°C° 0.6 mm 1 mps 674 mmHg 84%
    16:00 +25°C° 0.6 mm 1 mps 673 mmHg 85%
    17:00 +24°C° 0.2 mm 1 mps 673 mmHg 89%
    18:00 +23°C° 0.2 mm 1 mps 673 mmHg 94%
    19:00 +19°C° 0.2 mm 0 mps 674 mmHg 98%
    20:00 +21°C° 0.4 mm 1 mps 674 mmHg 98%
    21:00 +21°C° 0.4 mm 1 mps 674 mmHg 98%
    22:00 +20°C° 0.4 mm 1 mps 675 mmHg 98%
    23:00 +20°C° 0.4 mm 1 mps 675 mmHg 98%

    Tomorrow, 8 December, Sunday

    Time Temperature Precipitation Wind Pressure Humidity
    00:00 +20°C° 0.4 mm 1 mps 674 mmHg 98%
    01:00 +19°C° 0.4 mm 1 mps 674 mmHg 98%
    02:00 +19°C° 0.4 mm 1 mps 674 mmHg 98%
    03:00 +19°C° 0.4 mm 1 mps 674 mmHg 98%
    04:00 +19°C° 0.4 mm 1 mps 674 mmHg 98%
    05:00 +19°C° 0.2 mm 1 mps 674 mmHg 98%
    06:00 +19°C° 0.2 mm 1 mps 674 mmHg 97%
    07:00 +19°C° 0.2 mm 1 mps 675 mmHg 97%
    08:00 +21°C° 0.4 mm 1 mps 675 mmHg 92%
    09:00 +23°C° 0.4 mm 1 mps 675 mmHg 86%
    10:00 +25°C° 0.4 mm 1 mps 676 mmHg 81%
    11:00 +26°C° 0.5 mm 1 mps 675 mmHg 79%
    12:00 +26°C° 0.5 mm 1 mps 674 mmHg 77%
    13:00 +26°C° 0.5 mm 1 mps 674 mmHg 74%
    14:00 +26°C° 0.3 mm 1 mps 673 mmHg 76%
    15:00 +26°C° 0.3 mm 1 mps 673 mmHg 78%
    16:00 +25°C° 0.3 mm 2 mps 672 mmHg 80%
    17:00 +24°C° 0.6 mm 1 mps 673 mmHg 86%
    18:00 +22°C° 0.6 mm 1 mps 673 mmHg 92%
    19:00 +21°C° 0.6 mm 1 mps 673 mmHg 98%
    20:00 +21°C° 0.4 mm 1 mps 674 mmHg 98%
    21:00 +20°C° 0.4 mm 1 mps 674 mmHg 98%
    22:00 +20°C° 0.4 mm 1 mps 674 mmHg 98%
    23:00 +20°C° 0 mm 1 mps 674 mmHg 98%

    Day after tomorrow, 9 December, Monday

    Time Temperature Precipitation Wind Pressure Humidity
    00:00 +19°C° 0 mm 1 mps 674 mmHg 98%
    01:00 +19°C° 0 mm 1 mps 673 mmHg 98%
    02:00 +19°C° 0 mm 1 mps 673 mmHg 98%
    03:00 +18°C° 0 mm 1 mps 673 mmHg 98%
    04:00 +18°C° 0 mm 1 mps 673 mmHg 98%
    05:00 +18°C° 0 mm 1 mps 673 mmHg 97%
    06:00 +18°C° 0 mm 1 mps 674 mmHg 96%
    07:00 +19°C° 0 mm 1 mps 674 mmHg 96%
    08:00 +21°C° 0 mm 1 mps 675 mmHg 85%
    09:00 +24°C° 0 mm 1 mps 675 mmHg 73%
    10:00 +27°C° 0 mm 1 mps 676 mmHg 62%
    11:00 +27°C° 0 mm 1 mps 675 mmHg 60%
    12:00 +28°C° 0 mm 1 mps 674 mmHg 57%
    13:00 +28°C° 0 mm 2 mps 674 mmHg 55%
    14:00 +28°C° 0 mm 1 mps 673 mmHg 59%
    15:00 +27°C° 0 mm 1 mps 672 mmHg 64%
    16:00 +26°C° 0 mm 1 mps 672 mmHg 68%
    17:00 +25°C° 0.1 mm 1 mps 672 mmHg 78%
    18:00 +23°C° 0.1 mm 1 mps 672 mmHg 87%
    19:00 +19°C° 0.1 mm 0 mps 672 mmHg 97%
    20:00 +19°C° 0.4 mm 0 mps 672 mmHg 97%
    21:00 +18°C° 0.4 mm 0 mps 673 mmHg 98%
    22:00 +20°C° 0.4 mm 1 mps 673 mmHg 98%
    23:00 +20°C° 0 mm 1 mps 673 mmHg 98%

    10 December, Tuesday

    Time Temperature Precipitation Wind Pressure Humidity
    00:00 +20°C° 0 mm 1 mps 673 mmHg 98%
    01:00 +20°C° 0 mm 1 mps 673 mmHg 98%
    02:00 +19°C° 0 mm 1 mps 672 mmHg 98%
    03:00 +19°C° 0 mm 1 mps 672 mmHg 98%
    04:00 +19°C° 0 mm 1 mps 672 mmHg 98%
    05:00 +19°C° 0 mm 1 mps 673 mmHg 97%
    06:00 +18°C° 0 mm 0 mps 673 mmHg 97%
    07:00 +18°C° 0 mm 0 mps 674 mmHg 96%
    08:00 +22°C° 0.1 mm 1 mps 674 mmHg 88%
    09:00 +24°C° 0.1 mm 1 mps 675 mmHg 80%
    10:00 +26°C° 0.1 mm 1 mps 675 mmHg 73%
    11:00 +26°C° 0.3 mm 1 mps 674 mmHg 73%
    12:00 +27°C° 0.3 mm 1 mps 674 mmHg 73%
    13:00 +27°C° 0.3 mm 1 mps 673 mmHg 72%
    14:00 +26°C° 0.9 mm 1 mps 672 mmHg 78%
    15:00 +26°C° 0.9 mm 1 mps 672 mmHg 84%
    16:00 +25°C° 0.9 mm 1 mps 671 mmHg 90%
    17:00 +24°C° 0.3 mm 1 mps 671 mmHg 92%
    18:00 +22°C° 0.3 mm 1 mps 672 mmHg 95%
    19:00 +21°C° 0.3 mm 1 mps 672 mmHg 98%
    20:00 +21°C° 0.6 mm 1 mps 673 mmHg 98%
    21:00 +21°C° 0.6 mm 1 mps 673 mmHg 99%
    22:00 +20°C° 0.6 mm 1 mps 674 mmHg 99%
    23:00 +20°C° 0.2 mm 1 mps 673 mmHg 99%

    11 December, Wednesday

    Time Temperature Precipitation Wind Pressure Humidity
    00:00 +20°C° 0.2 mm 1 mps 673 mmHg 98%
    01:00 +20°C° 0.2 mm 1 mps 673 mmHg 98%
    02:00 +19°C° 0 mm 1 mps 673 mmHg 98%
    03:00 +19°C° 0 mm 1 mps 672 mmHg 98%
    04:00 +19°C° 0 mm 1 mps 672 mmHg 98%
    05:00 +19°C° 0 mm 1 mps 673 mmHg 98%
    06:00 +19°C° 0 mm 1 mps 673 mmHg 97%
    07:00 +19°C° 0 mm 1 mps 674 mmHg 97%
    08:00 +22°C° 0 mm 1 mps 674 mmHg 87%
    09:00 +24°C° 0 mm 1 mps 675 mmHg 77%
    10:00 +27°C° 0 mm 1 mps 676 mmHg 67%
    11:00 +26°C° 0.4 mm 1 mps 675 mmHg 70%
    12:00 +26°C° 0.4 mm 1 mps 674 mmHg 73%
    13:00 +26°C° 0.4 mm 1 mps 673 mmHg 76%
    14:00 +26°C° 0.6 mm 1 mps 673 mmHg 79%
    15:00 +25°C° 0.6 mm 1 mps 672 mmHg 82%
    16:00 +25°C° 0.6 mm 1 mps 672 mmHg 85%
    17:00 +24°C° 0.2 mm 1 mps 672 mmHg 89%
    18:00 +22°C° 0.2 mm 1 mps 672 mmHg 94%
    19:00 +19°C° 0.2 mm 0 mps 673 mmHg 98%
    20:00 +21°C° 0.2 mm 1 mps 673 mmHg 98%
    21:00 +20°C° 0.2 mm 1 mps 674 mmHg 98%
    22:00 +20°C° 0.2 mm 1 mps 674 mmHg 98%
    23:00 +20°C° 0 mm 1 mps 674 mmHg 98%

    12 December, Thursday

    Time Temperature Precipitation Wind Pressure Humidity
    00:00 +19°C° 0 mm 1 mps 673 mmHg 98%
    01:00 +19°C° 0 mm 1 mps 673 mmHg 98%
    02:00 +19°C° 0 mm 1 mps 673 mmHg 98%
    03:00 +19°C° 0 mm 1 mps 673 mmHg 97%
    04:00 +18°C° 0 mm 1 mps 673 mmHg 97%
    05:00 +19°C° 0.1 mm 1 mps 673 mmHg 97%
    06:00 +19°C° 0.1 mm 1 mps 674 mmHg 96%
    07:00 +17°C° 0.1 mm 0 mps 674 mmHg 96%
    08:00 +21°C° 0.1 mm 1 mps 675 mmHg 88%
    09:00 +23°C° 0.1 mm 1 mps 675 mmHg 80%
    10:00 +26°C° 0.1 mm 1 mps 675 mmHg 72%
    11:00 +26°C° 0.5 mm 1 mps 675 mmHg 75%
    12:00 +26°C° 0.5 mm 1 mps 674 mmHg 77%
    13:00 +26°C° 0.5 mm 1 mps 673 mmHg 79%
    14:00 +26°C° 0.3 mm 1 mps 673 mmHg 79%
    15:00 +25°C° 0.3 mm 1 mps 672 mmHg 79%
    16:00 +25°C° 0.3 mm 1 mps 672 mmHg 78%
    17:00 +24°C° 0.3 mm 1 mps 672 mmHg 85%
    18:00 +22°C° 0.3 mm 1 mps 672 mmHg 92%
    19:00 +21°C° 0.3 mm 1 mps 672 mmHg 98%
    20:00 +20°C° 0.1 mm 1 mps 673 mmHg 98%
    21:00 +20°C° 0.1 mm 1 mps 673 mmHg 98%
    22:00 +20°C° 0.1 mm 1 mps 674 mmHg 98%
    23:00 +19°C° 0 mm 1 mps 673 mmHg 98%
    Show more